Flag for Canada Weather past 2 weeks in Saanich, British Columbia, Canada

Now
61 °F

Passing clouds.


Feels Like: 61 °F
Forecast: 53 / 67 °F
Wind: 7 mph from Southeast

Location: Victoria Int. Airportb. C.

Current Time: May 27, 2015 at 9:29:50 PM

Latest Report: May 27, 2015 at 8:00 PM


Visibility: 30 mi

Pressure: 30.00 "Hg

Humidity: 77%

Dew point: 54 °F

Location of SaanichLocation

Historic Weather in Saanich — Graph

°F

Saanich temperature yesterday

Maximum temperature yesterday: 68 °F (at 3:00 PM)
Minimum temperature yesterday: 52 °F (at 12:00 AM)
Average temperature yesterday: 59 °F

Past Weeks' High & Low Weather Summary

 TemperatureHumidityPressure
High72 °F (May 18, 2:00 PM)100% (May 14, 2:00 AM)30.17 "Hg (May 14, 2:00 AM)
Low48 °F (May 15, 12:00 AM)53% (May 18, 2:00 PM)29.80 "Hg (May 12, 8:00 PM)
Average57 °F80%29.97 "Hg
* Reported May 12 8:00 PM — May 27 8:00 PM, Saanich, Weather by CustomWeather, © 2015

Note: Actual official high and low records may vary slightly from our data, if they occured in-between our weather recording intervals... More about our weather records

Advertising

Saanich weather history for previous 24 hours

 ConditionsComfort  
Time TempWeatherWind HumidityBarometerVisibility
8:00 PM
Wed, May 27
61 °FPassing clouds.7 mph77%30.00 "Hg30 mi
7:00 PM66 °FPassing clouds.9 mph64%29.99 "Hg30 mi
6:00 PM68 °FPassing clouds.9 mph60%30.00 "Hg30 mi
5:00 PM68 °FPassing clouds.7 mph64%30.01 "Hg30 mi
4:00 PM70 °FPassing clouds.7 mph60%30.02 "Hg30 mi
3:00 PM70 °FPassing clouds.7 mph60%30.04 "Hg30 mi
2:00 PM68 °FPassing clouds.7 mph64%30.06 "Hg30 mi
1:00 PM66 °FPassing clouds.6 mph73%30.07 "Hg30 mi
12:00 PM61 °FPartly sunny.6 mph77%30.08 "Hg30 mi
11:00 AM59 °FOvercast.5 mph77%30.08 "Hg30 mi
10:00 AM57 °FOvercast.3 mph82%30.07 "Hg30 mi
9:00 AM54 °FOvercast.No wind88%30.07 "Hg30 mi
8:00 AM54 °FPartly sunny.2 mph88%30.07 "Hg30 mi
7:00 AM54 °FPartly sunny.5 mph88%30.06 "Hg30 mi
6:00 AM54 °FPassing clouds.2 mph88%30.06 "Hg30 mi
5:00 AM54 °FPassing clouds.5 mph88%30.04 "Hg30 mi
4:00 AM52 °FPassing clouds.No wind94%30.04 "Hg30 mi
3:00 AM52 °FPassing clouds.3 mph88%30.03 "Hg30 mi
2:00 AM52 °FPassing clouds.3 mph88%30.03 "Hg30 mi
1:00 AM52 °FPassing clouds.6 mph94%30.03 "Hg30 mi
12:00 AM54 °FPassing clouds.2 mph94%30.02 "Hg30 mi
11:00 PM
Tue, May 26
55 °FPassing clouds.3 mph88%30.01 "Hg30 mi
10:00 PM55 °FScattered clouds.5 mph88%30.00 "Hg30 mi
9:00 PM57 °FPassing clouds.7 mph82%29.99 "Hg20 mi
Weather by CustomWeather, © 2015

See weather overviewHow to use our weather pages